| time (UTC) | temp F | wind direction | speed MPH | gust MPH | rain 1hr in | rain 24hr in | rain mn in | humidity % | barometer mb |
| 20260902221551 | 68 | 71 | 0.0 | 1.0 | 0.00 | 0.08 | 0.00 | 80 | 1022.1 |
| 20260902220033 | 68 | 87 | 0.0 | 1.0 | 0.00 | 0.08 | 0.00 | 80 | 1022.0 |
| 20260902214533 | 68 | 150 | 0.0 | 3.0 | 0.00 | 0.08 | 0.00 | 78 | 1021.9 |
| 20260902213032 | 69 | 205 | 1.0 | 4.0 | 0.00 | 0.08 | 0.00 | 77 | 1021.7 |
| 20260902211530 | 69 | 282 | 0.0 | 5.0 | 0.00 | 0.08 | 0.00 | 78 | 1021.3 |
| 20260902210030 | 70 | 150 | 0.0 | 6.0 | 0.00 | 0.08 | 0.00 | 77 | 1021.4 |
| 20260902204529 | 70 | 169 | 0.0 | 4.0 | 0.00 | 0.08 | 0.00 | 77 | 1021.2 |
| 20260902203028 | 70 | 89 | 0.0 | 3.0 | 0.00 | 0.08 | 0.00 | 79 | 1021.4 |
| 20260902201529 | 70 | 101 | 0.0 | 5.0 | 0.00 | 0.08 | 0.00 | 78 | 1021.3 |
| 20260902200010 | 70 | 119 | 0.0 | 3.0 | 0.00 | 0.08 | 0.00 | 77 | 1021.5 |
| 20260902194516 | 70 | 115 | 0.0 | 1.0 | 0.00 | 0.08 | 0.00 | 76 | 1022.0 |
| 20260902193057 | 71 | 70 | 0.0 | 2.0 | 0.00 | 0.08 | 0.00 | 75 | 1022.3 |
| 20260902191551 | 71 | 96 | 0.0 | 2.0 | 0.00 | 0.08 | 0.00 | 73 | 1022.1 |
| 20260902190034 | 72 | 65 | 0.0 | 5.0 | 0.00 | 0.08 | 0.00 | 71 | 1022.0 |
| 20260902184533 | 72 | 358 | 0.0 | 5.0 | 0.00 | 0.08 | 0.00 | 70 | 1021.7 |
| 20260902183024 | 73 | 53 | 0.0 | 8.0 | 0.00 | 0.08 | 0.00 | 66 | 1021.9 |
| 20260902181522 | 73 | 103 | 0.0 | 5.0 | 0.00 | 0.08 | 0.00 | 68 | 1022.2 |
| 20260902180022 | 74 | 78 | 0.0 | 3.0 | 0.00 | 0.08 | 0.00 | 68 | 1022.4 |
| 20260902174521 | 73 | 37 | 1.0 | 4.0 | 0.00 | 0.08 | 0.00 | 64 | 1022.5 |
| 20260902173035 | 74 | 111 | 2.0 | 5.0 | 0.00 | 0.08 | 0.00 | 61 | 1022.6 |
| 20260902171518 | 74 | 180 | 0.0 | 4.0 | 0.00 | 0.08 | 0.00 | 67 | 1022.1 |
| 20260902170017 | 73 | 63 | 2.0 | 6.0 | 0.00 | 0.08 | 0.00 | 67 | 1022.1 |
| 20260902164516 | 73 | 131 | 0.0 | 4.0 | 0.00 | 0.08 | 0.00 | 71 | 1022.3 |
| 20260902163015 | 72 | 44 | 2.0 | 5.0 | 0.00 | 0.08 | 0.00 | 69 | 1022.2 |
| 20260902161558 | 73 | 97 | 0.0 | 5.0 | 0.00 | 0.08 | 0.00 | 69 | 1022.4 |
| 20260902160115 | 73 | 89 | 1.0 | 5.0 | 0.00 | 0.08 | 0.00 | 67 | 1022.4 |
| 20260902154547 | 73 | 109 | 1.0 | 5.0 | 0.00 | 0.08 | 0.00 | 69 | 1022.6 |
| 20260902153043 | 73 | 66 | 1.0 | 4.0 | 0.00 | 0.08 | 0.00 | 68 | 1022.6 |
| 20260902151540 | 73 | 71 | 0.0 | 4.0 | 0.00 | 0.08 | 0.00 | 70 | 1022.7 |
| 20260902150039 | 72 | 279 | 0.0 | 1.0 | 0.00 | 0.12 | 0.00 | 68 | 1022.7 |
| 20260902144541 | 71 | 307 | 0.0 | 3.0 | 0.00 | 0.12 | 0.00 | 71 | 1022.7 |
| 20260902143043 | 72 | 53 | 0.0 | 4.0 | 0.00 | 0.12 | 0.00 | 71 | 1022.6 |
| 20260902141535 | 71 | 205 | 0.0 | 1.0 | 0.00 | 0.12 | 0.00 | 76 | 1022.5 |
| 20260902140036 | 69 | 66 | 2.0 | 5.0 | 0.00 | 0.18 | 0.00 | 75 | 1022.6 |
| 20260902134527 | 68 | 55 | 0.0 | 3.0 | 0.00 | 0.18 | 0.00 | 80 | 1022.5 |
| 20260902133023 | 67 | 235 | 0.0 | 5.0 | 0.00 | 0.18 | 0.00 | 83 | 1022.3 |
| 20260902131512 | 66 | 75 | 0.0 | 4.0 | 0.00 | 0.18 | 0.00 | 84 | 1022.2 |
| 20260902130006 | 65 | 63 | 0.0 | 1.0 | 0.00 | 0.19 | 0.00 | 85 | 1022.1 |
| 20260902124505 | 64 | 267 | 0.0 | 1.0 | 0.00 | 0.19 | 0.00 | 88 | 1022.0 |
| 20260902123003 | 64 | 27 | 0.0 | 1.0 | 0.00 | 0.19 | 0.00 | 88 | 1022.2 |
| 20260902121603 | 63 | 94 | 0.0 | 2.0 | 0.00 | 0.19 | 0.00 | 89 | 1022.3 |
| 20260902120058 | 63 | 98 | 0.0 | 6.0 | 0.00 | 0.19 | 0.00 | 89 | 1022.3 |
| 20260902114559 | 63 | 140 | 0.0 | 3.0 | 0.00 | 0.19 | 0.00 | 90 | 1022.4 |
| 20260902113054 | 62 | 306 | 0.0 | 0.0 | 0.00 | 0.19 | 0.00 | 91 | 1022.5 |
| 20260902111541 | 62 | 146 | 0.0 | 1.0 | 0.00 | 0.19 | 0.00 | 92 | 1022.5 |
| 20260902110053 | 61 | 342 | 0.0 | 1.0 | 0.00 | 0.19 | 0.00 | 93 | 1022.3 |
| 20260902104512 | 61 | 197 | 0.0 | 2.0 | 0.00 | 0.19 | 0.00 | 93 | 1022.1 |
| 20260902103011 | 61 | 302 | 0.0 | 2.0 | 0.00 | 0.19 | 0.00 | 93 | 1022.0 |
| 20260902101553 | 61 | 273 | 0.0 | 1.0 | 0.00 | 0.19 | 0.00 | 93 | 1021.9 |
| 20260902100052 | 61 | 328 | 0.0 | 2.0 | 0.00 | 0.20 | 0.00 | 93 | 1021.9 |
| 20260902094541 | 61 | 337 | 0.0 | 1.0 | 0.00 | 0.20 | 0.00 | 93 | 1021.7 |
| 20260902093031 | 61 | 305 | 0.0 | 1.0 | 0.00 | 0.20 | 0.00 | 93 | 1021.6 |
| 20260902091512 | 61 | 309 | 0.0 | 1.0 | 0.00 | 0.20 | 0.00 | 93 | 1021.5 |
| 20260902090012 | 61 | 286 | 0.0 | 1.0 | 0.00 | 0.22 | 0.00 | 94 | 1021.3 |
| 20260902084605 | 61 | 120 | 0.0 | 0.0 | 0.00 | 0.22 | 0.00 | 94 | 1021.3 |
| 20260902083107 | 61 | 120 | 0.0 | 1.0 | 0.00 | 0.22 | 0.00 | 94 | 1021.4 |
| 20260902081557 | 61 | 146 | 0.0 | 2.0 | 0.00 | 0.22 | 0.00 | 94 | 1021.1 |
| 20260902080112 | 61 | 257 | 0.0 | 1.0 | 0.00 | 0.23 | 0.00 | 94 | 1021.2 |
| 20260902074557 | 61 | 291 | 0.0 | 1.0 | 0.00 | 0.23 | 0.00 | 94 | 1021.0 |
| 20260902073055 | 61 | 234 | 0.0 | 0.0 | 0.00 | 0.23 | 0.00 | 94 | 1021.2 |
| 20260902071555 | 61 | 195 | 0.0 | 1.0 | 0.00 | 0.23 | 0.00 | 94 | 1021.0 |
| 20260902070053 | 61 | 238 | 0.0 | 0.0 | 0.00 | 0.24 | 0.00 | 95 | 1021.0 |
| 20260902064536 | 61 | 297 | 0.0 | 1.0 | 0.00 | 0.24 | 0.00 | 95 | 1020.8 |
| 20260902063036 | 61 | 290 | 0.0 | 1.0 | 0.00 | 0.24 | 0.00 | 95 | 1020.9 |
| 20260902061521 | 61 | 101 | 0.0 | 2.0 | 0.00 | 0.24 | 0.00 | 95 | 1020.7 |
| 20260902060018 | 61 | 276 | 0.0 | 0.0 | 0.00 | 0.24 | 0.00 | 95 | 1020.7 |
| 20260902054558 | 61 | 13 | 0.0 | 0.0 | 0.00 | 0.24 | 0.00 | 95 | 1021.0 |
| 20260902053058 | 61 | 15 | 0.0 | 1.0 | 0.00 | 0.24 | 0.00 | 95 | 1021.0 |
| 20260902051539 | 61 | 271 | 0.0 | 0.0 | 0.00 | 0.24 | 0.00 | 95 | 1020.9 |
| 20260902050037 | 61 | 271 | 0.0 | 0.0 | 0.00 | 0.24 | 0.00 | 95 | 1020.7 |
| 20260902044520 | 61 | 274 | 0.0 | 1.0 | 0.00 | 0.24 | 0.00 | 95 | 1020.6 |
| 20260902043019 | 61 | 274 | 0.0 | 0.0 | 0.00 | 0.24 | 0.00 | 95 | 1020.6 |
| 20260902041600 | 61 | 5 | 0.0 | 0.0 | 0.00 | 0.24 | 0.00 | 95 | 1020.6 |
| 20260902034540 | 61 | 315 | 0.0 | 0.0 | 0.00 | 0.24 | 0.24 | 95 | 1020.3 |
| 20260902033047 | 61 | 160 | 0.0 | 0.0 | 0.00 | 0.24 | 0.24 | 94 | 1020.0 |
| 20260902031521 | 61 | 143 | 0.0 | 0.0 | 0.00 | 0.24 | 0.24 | 94 | 1020.4 |
| 20260902030020 | 61 | 91 | 0.0 | 3.0 | 0.00 | 0.24 | 0.24 | 94 | 1020.3 |
| 20260902024601 | 61 | 96 | 0.0 | 1.0 | 0.00 | 0.24 | 0.24 | 94 | 1020.1 |
| 20260902023102 | 61 | 78 | 0.0 | 2.0 | 0.00 | 0.24 | 0.24 | 94 | 1019.9 |
| 20260902021547 | 61 | 302 | 0.0 | 3.0 | 0.00 | 0.24 | 0.24 | 94 | 1019.9 |
| 20260902020047 | 62 | 342 | 0.0 | 1.0 | 0.00 | 0.24 | 0.24 | 95 | 1019.7 |
| 20260902014545 | 61 | 281 | 0.0 | 1.0 | 0.00 | 0.24 | 0.24 | 94 | 1019.5 |
| 20260902013044 | 61 | 131 | 0.0 | 2.0 | 0.00 | 0.24 | 0.24 | 94 | 1019.3 |
| 20260902011543 | 61 | 119 | 0.0 | 4.0 | 0.00 | 0.24 | 0.24 | 94 | 1018.8 |
| 20260902010047 | 61 | 131 | 0.0 | 4.0 | 0.00 | 0.24 | 0.24 | 94 | 1019.1 |
| 20260902004542 | 61 | 321 | 1.0 | 5.0 | 0.00 | 0.24 | 0.24 | 94 | 1018.8 |
| 20260902003042 | 61 | 116 | 0.0 | 4.0 | 0.00 | 0.24 | 0.24 | 94 | 1018.8 |
| 20260902001526 | 61 | 120 | 1.0 | 5.0 | 0.02 | 0.24 | 0.24 | 94 | 1018.7 |
| 20260902000027 | 61 | 295 | 0.0 | 1.0 | 0.02 | 0.24 | 0.24 | 94 | 1018.6 |
| 20260901234505 | 62 | 286 | 0.0 | 2.0 | 0.03 | 0.24 | 0.24 | 94 | 1018.7 |
| 20260901233005 | 62 | 82 | 0.0 | 2.0 | 0.08 | 0.24 | 0.24 | 94 | 1018.6 |
| 20260901231545 | 62 | 101 | 0.0 | 1.0 | 0.06 | 0.22 | 0.22 | 93 | 1018.6 |
| 20260901230047 | 62 | 89 | 1.0 | 4.0 | 0.06 | 0.22 | 0.22 | 93 | 1018.5 |
| 20260901224532 | 63 | 103 | 1.0 | 5.0 | 0.05 | 0.21 | 0.21 | 93 | 1018.3 |